Regional Weather Roundup
Issued by NWS San Diego, CA

Home | Current Version | Previous Version | Text Only | Print | Product List | Glossary On
Versions: 1 2 3 4 5 6 7 8 9 10 11 12 13 14 15 16 17 18 19 20 21 22 23 24 25 26 27
000
ASUS46 KSGX 280311
RWRSGX

SAN DIEGO HOURLY WEATHER ROUNDUP
NATIONAL WEATHER SERVICE SAN DIEGO CA
800 PM PDT WED JUL 27 2016

NOTE: "FAIR" INDICATES FEW OR NO CLOUDS BELOW 12,000 FEET WITH NO
SIGNIFICANT WEATHER AND/OR OBSTRUCTIONS TO VISIBILITY.

CAZ042-043-060-061-PZZ750-775-280400-

GREATER SAN DIEGO AREA

CITY           SKY/WX    TMP DP  RH WIND       PRES   REMARKS
LINDBERGH FLD  PTCLDY    73  65  75 NW6       29.90R
POINT LOMA       N/A     71  65  80 W10         N/A
NATIONAL CITY    N/A     77  69  76 SW6       29.90R
CHULA VISTA      N/A     75  69  82 W2        29.82R
IMPERIAL BEACH MOCLDY    74  67  78 W5        29.89S
BROWN FIELD    CLEAR     76  62  62 NW3       29.90R
MIRAMAR MCAS   PTCLDY    79  58  48 W6        29.89R
MONTGOMERY FLD CLEAR     76  65  68 W6        29.89R

$$

NORTH SAN DIEGO COUNTY

CITY           SKY/WX    TMP DP  RH WIND       PRES   REMARKS
CAMP PENDLETON PTCLDY    75  66  73 S7        29.87S
OCEANSIDE AP   PTCLDY    74  64  71 SW5       29.87R
OCEANSIDE HBR    N/A     74  69  84 CALM      29.90S
VISTA            N/A     79  65  62 CALM      29.85R
CARLSBAD       PTCLDY    74  65  73 VRB5      29.88S
DEL MAR          N/A     73  68  86 W1        29.91R
LA JOLLA SCRIP   N/A     71  68  89 W2        29.88R
FALLBROOK        N/A     79  63  57 CALM      29.86S
ESCONDIDO        N/A     84  57  39 CALM      29.89R
SAN MARCOS       N/A     79  64  58 W8        29.90S
POWAY            N/A     82  56  40 CALM      29.88S

$$

EAST SAN DIEGO COUNTY

CITY           SKY/WX    TMP DP  RH WIND       PRES   REMARKS
RAMONA         PTCLDY    79  50  36 CALM      29.93R
SANTEE LAKES     N/A     81  60  48 SW3       29.86R
LA MESA          N/A     80  63  55 CALM      29.81R
JAMUL            N/A     78  62  56 CALM      29.86F
DESCANSO N       N/A     77  48  35 CALM      29.73R
MT. LAGUNA OBS   N/A     74  45  35 NW3       29.77R
CAMPO            N/A     82  52  35 W8        29.95R

$$

ORANGE COUNTY AND THE LOS ANGELES BASIN

CITY           SKY/WX    TMP DP  RH WIND       PRES   REMARKS
JOHN WAYNE AP  PTCLDY    74  64  71 SW6       29.87R
LAGUNA BEACH     N/A    N/A N/A N/A CALM      29.82R
LAKE FOREST FR   N/A     82  45  27 CALM      29.75R
HUNTINGTON BCH   N/A     72  68  87 W7        29.89R
LOS ALAMITOS   PTCLDY    77  66  70 S3        29.86R
FULLERTON      CLEAR     84  53  34 W3        29.85R
LONG BEACH     CLEAR     77  64  64 NW10      29.87R
L.A. AP        PTCLDY    72  66  81 W10       29.88R
L.A. DOWNTOWN  CLEAR     75  64  68 W3        29.87R

$$

THE INLAND EMPIRE

CITY           SKY/WX    TMP DP  RH WIND       PRES   REMARKS
CORONA         CLEAR     86  47  25 NW9       29.87R
CHINO          PTCLDY    86  46  24 SW9       29.89R
ONTARIO        PTCLDY    87  46  24 SW10      29.89R
SAN BERNARDINO CLEAR     91  45  19 SW9       29.90R
RIVERSIDE AP   CLEAR     88  42  20 W8        29.89R
MORENO VALLEY    N/A     87  53  30 W6        28.04R
MARCH ARB      CLEAR     86  47  25 NW12      29.91R
HORSETHIEF CYN   N/A     90  38  16 NE1       29.88R
PERRIS           N/A     87  50  27 SW7       29.90R
HEMET EAST       N/A     88  50  26 W5        29.75R
FRENCH VALLEY  FAIR      82  55  39 S5        29.92R
TEMECULA         N/A     85  53  32 SW2       29.84R

$$

SAN BERNARDINO AND RIVERSIDE COUNTY MOUNTAINS

CITY           SKY/WX    TMP DP  RH WIND       PRES   REMARKS
BIG BEAR AP    CLEAR     70  46  43 W6        30.31R
PINE COVE        N/A     72  49  44 N2        29.81S

$$

SOUTHERN DESERT INCLUDING THE COACHELLA VALLEY

CITY           SKY/WX    TMP DP  RH WIND       PRES   REMARKS
PALM SPRINGS   PTCLDY   107  49  14 W17G30    29.71R HX 104
THOUSAND PALMS   N/A    104  54  18 W18       29.66R HX 102
PALM DESERT      N/A    108  56  18 CALM        N/A  HX 107
THERMAL        CLEAR    107  50  15 N14       29.63R HX 104
BLYTHE         CLEAR    111  52  14 SW10      29.68R HX 108
IMPERIAL AP    PTCLDY   105  59  22 W13       29.65R HX 105
EL CENTRO NAS  PTCLDY   105  52  17 W14       29.68R HX 103
YUMA AZ        MOCLDY   103  65  29 S10       29.69R HX 106
MEXICALI       PTCLDY   102  61  25 SE7       29.67  HX 103

$$

UPPER DESERT

CITY           SKY/WX    TMP DP  RH WIND       PRES   REMARKS
VICTORVILLE AP CLEAR     91  46  21 S10       29.96R
HESPERIA         N/A     88  54  31 W7        29.88R
PALMDALE       CLEAR     91  44  19 SW16      29.95R
LANCASTER      CLEAR     91  41  17 SW16      29.92R
EDWARDS AFB    PTCLDY    95  41  15 SW18G25   29.89R
DAGGETT        CLEAR    103  48  15 SW20      29.83R HX  99
29 PALMS N     PTCLDY   102  45  14 SW15      29.88R HX  98
NEEDLES        MOCLDY   110  52  14 SE20G32   29.72R HX 107

$$

REGIONAL REPORTS

CITY           SKY/WX    TMP DP  RH WIND       PRES   REMARKS
SANTA BARBARA  CLEAR     67  62  84 W7        29.86S
SANDBERG       CLEAR     87  39  18 N10       30.14R
LAS VEGAS NV   PTCLDY   107  38   9 SW8       29.76S HX 101
PHOENIX AZ     MOCLDY   109  55  17 W13       29.69R HX 108
TIJUANA        PTCLDY    75  61  60 W9        29.92R
ENSENADA NW      N/A     71  32  23 W2        29.87R

$$

OFFSHORE ISLANDS

CITY           SKY/WX    TMP DP  RH WIND       PRES   REMARKS
CATALINA ARPT  CLEAR     81   3   5 W8        29.95S
SAN NICOLAS IS CLEAR     71  64  78 N8        29.89R

$$

MARINE AND OFFSHORE BUOY REPORTS

STATION/POSITION SKY/WX   TEMP    WIND        PRES    SWELL
                          AIR SEA DIR/SP/G            HT/PER/DIR
                          (F)     (DEG/KT/KT) (MB)    (FT/S/D)
TANNER BANKS               62 65  300/ 12/ 16 1012.3R   5/300/10
S CLEMENTE BASIN           67 70  290/ 10/ 10 1011.8R   3/240/ 9
SAN NICOLAS IS.               64                N/A     3/300/11
SO. S. ROSA ISLA           62 67  290/ 14/ 17 1011.9F   5/300/10
W. S. BARBARA CH           59 64  300/ 17/ 21 1011.8S   5/300/10
M. S. BARBARA CH                  270/ 12/ 14 1011.6F
S. MONICA BASIN            69 72  300/  8/ 10 1011.0F
S PEDRO CHANNEL               73                N/A     2/170/12
OCEANSIDE OFFSHR              77                N/A     2/200/13
TORREY PINES OTR              76                N/A     2/190/13
LA JOLLA 1                    77                N/A
SAN DIEGO BAY                 79                N/A
POINT LOMA SOUTH              73                N/A     2/210/11

$$





USA.gov is the U.S. government's official web portal to all federal, state and local government web resources and services.